Time,TemperatureF,DewpointF,PressureIn,WindDirection,WindDirectionDegrees,WindSpeedMPH,WindSpeedGustMPH,Humidity,HourlyPrecipIn,Conditions,Clouds,dailyrainin,SoftwareType,DateUTC
2013-08-18 00:02:00,-999.0,-99.9,30.18,WSW,248,0.0,0.0,-999,0.00,,,0.00,,2013-08-18 04:02:00,
2013-08-18 00:13:00,64.0,56.0,30.18,WSW,248,0.0,0.0,76,0.00,,,0.00,,2013-08-18 04:13:00,
2013-08-18 00:23:00,64.0,56.0,30.18,WSW,248,0.0,0.0,76,0.00,,,0.00,,2013-08-18 04:23:00,
2013-08-18 00:53:00,64.0,56.0,30.18,WSW,248,0.0,0.0,76,0.00,,,0.00,,2013-08-18 04:53:00,
2013-08-18 01:12:00,64.0,57.0,30.19,NNW,338,0.0,0.0,77,0.00,,,0.00,,2013-08-18 05:12:00,
2013-08-18 01:22:00,64.0,57.0,30.19,NNW,338,0.0,0.0,77,0.00,,,0.00,,2013-08-18 05:22:00,
2013-08-18 01:52:00,64.0,56.0,30.18,West,270,0.0,0.0,76,0.00,,,0.00,,2013-08-18 05:52:00,
2013-08-18 02:11:00,64.0,56.0,30.18,NNW,338,0.0,0.0,76,0.00,,,0.00,,2013-08-18 06:11:00,
2013-08-18 02:21:00,64.0,56.0,30.18,NNW,338,0.0,0.0,76,0.00,,,0.00,,2013-08-18 06:21:00,
2013-08-18 02:52:00,64.0,56.0,30.17,NNW,338,0.0,0.0,76,0.00,,,0.00,,2013-08-18 06:52:00,
2013-08-18 03:11:00,64.0,57.0,30.17,NNW,338,0.0,0.0,77,0.00,,,0.00,,2013-08-18 07:11:00,
2013-08-18 03:22:00,63.0,56.0,30.17,NNW,338,0.0,0.0,77,0.00,,,0.00,,2013-08-18 07:22:00,
2013-08-18 03:52:00,63.0,57.0,30.17,NNW,338,0.0,0.0,80,0.00,,,0.00,,2013-08-18 07:52:00,
2013-08-18 04:12:00,63.0,57.0,30.17,NNW,338,0.0,0.0,80,0.00,,,0.00,,2013-08-18 08:12:00,
2013-08-18 04:21:00,63.0,57.0,30.17,NNW,338,0.0,0.0,80,0.00,,,0.00,,2013-08-18 08:21:00,
2013-08-18 04:52:00,62.0,56.0,30.17,NNW,338,0.0,0.0,82,0.02,,,0.02,,2013-08-18 08:52:00,
2013-08-18 05:11:00,62.0,56.0,30.17,NNW,338,0.0,0.0,82,0.02,,,0.02,,2013-08-18 09:11:00,
2013-08-18 05:21:00,62.0,56.0,30.17,NNW,338,0.0,0.0,82,0.02,,,0.02,,2013-08-18 09:21:00,
2013-08-18 05:43:00,62.0,56.0,30.17,NNW,338,0.0,0.0,82,0.04,,,0.04,,2013-08-18 09:43:00,
2013-08-18 05:53:00,62.0,57.0,30.17,NNW,338,0.0,0.0,83,0.02,,,0.04,,2013-08-18 09:53:00,
2013-08-18 06:13:00,61.0,56.0,30.17,NNW,338,0.0,0.0,83,0.02,,,0.04,,2013-08-18 10:13:00,
2013-08-18 06:23:00,61.0,56.0,30.18,NNW,338,0.0,0.0,83,0.02,,,0.04,,2013-08-18 10:23:00,
2013-08-18 06:52:00,61.0,56.0,30.18,NNW,338,0.0,0.0,84,0.02,,,0.06,,2013-08-18 10:52:00,
2013-08-18 07:11:00,61.0,56.0,30.18,NNW,338,0.0,0.0,84,0.02,,,0.06,,2013-08-18 11:11:00,
2013-08-18 07:22:00,61.0,56.0,30.19,NNW,338,0.0,0.0,84,0.04,,,0.08,,2013-08-18 11:22:00,
2013-08-18 07:42:00,61.0,56.0,30.18,NNW,338,0.0,0.0,85,0.02,,,0.08,,2013-08-18 11:42:00,
2013-08-18 07:52:00,61.0,56.0,30.19,NNW,338,0.0,0.0,85,0.04,,,0.10,,2013-08-18 11:52:00,
2013-08-18 08:11:00,61.0,56.0,30.19,NNW,338,0.0,0.0,85,0.04,,,0.10,,2013-08-18 12:11:00,
2013-08-18 08:21:00,61.0,56.0,30.20,NNW,338,0.0,0.0,85,0.02,,,0.10,,2013-08-18 12:21:00,
2013-08-18 08:32:00,61.0,56.0,30.20,NNW,338,0.0,0.0,85,0.02,,,0.10,,2013-08-18 12:32:00,
2013-08-18 08:42:00,61.0,56.0,30.20,NNW,338,0.0,0.0,85,0.02,,,0.10,,2013-08-18 12:42:00,
2013-08-18 08:52:00,61.0,57.0,30.20,NNW,338,0.0,0.0,86,0.00,,,0.10,,2013-08-18 12:52:00,
2013-08-18 09:11:00,61.0,57.0,30.20,NNW,338,0.0,0.0,86,0.02,,,0.12,,2013-08-18 13:11:00,
2013-08-18 09:21:00,62.0,58.0,30.21,NNW,338,0.0,0.0,86,0.02,,,0.12,,2013-08-18 13:21:00,
2013-08-18 09:42:00,62.0,58.0,30.20,NNW,338,0.0,0.0,86,0.02,,,0.12,,2013-08-18 13:42:00,
2013-08-18 09:52:00,62.0,58.0,30.20,NNW,338,0.0,0.0,86,0.00,,,0.12,,2013-08-18 13:52:00,
2013-08-18 10:11:00,62.0,58.0,30.20,NNW,338,0.0,0.0,87,0.00,,,0.12,,2013-08-18 14:11:00,
2013-08-18 10:21:00,62.0,58.0,30.20,NNW,338,0.0,0.0,87,0.00,,,0.12,,2013-08-18 14:21:00,
2013-08-18 10:53:00,63.0,59.0,30.21,NNW,338,0.0,0.0,86,0.00,,,0.12,,2013-08-18 14:53:00,
2013-08-18 11:12:00,63.0,59.0,30.21,NNW,338,0.0,0.0,86,0.00,,,0.12,,2013-08-18 15:12:00,
2013-08-18 11:22:00,64.0,59.0,30.21,NNW,338,0.0,0.0,85,0.00,,,0.12,,2013-08-18 15:22:00,
2013-08-18 11:43:00,64.0,59.0,30.21,NNW,338,0.0,0.0,84,0.00,,,0.12,,2013-08-18 15:43:00,
2013-08-18 11:54:00,65.0,60.0,30.22,NNW,338,0.0,0.0,84,0.00,,,0.12,,2013-08-18 15:54:00,
2013-08-18 12:03:00,65.0,60.0,30.22,NNW,338,0.0,0.0,84,0.00,,,0.12,,2013-08-18 16:03:00,
2013-08-18 12:13:00,65.0,60.0,30.22,NNW,338,0.0,0.0,84,0.00,,,0.12,,2013-08-18 16:13:00,
2013-08-18 12:23:00,65.0,60.0,30.21,NNW,338,0.0,0.0,83,0.00,,,0.12,,2013-08-18 16:23:00,
2013-08-18 12:42:00,66.0,60.0,30.20,NNW,338,0.0,0.0,82,0.00,,,0.12,,2013-08-18 16:42:00,
2013-08-18 12:52:00,66.0,60.0,30.19,NNW,338,0.0,0.0,82,0.00,,,0.12,,2013-08-18 16:52:00,
2013-08-18 13:13:00,66.0,60.0,30.19,West,270,0.0,0.0,81,0.00,,,0.12,,2013-08-18 17:13:00,
2013-08-18 13:23:00,67.0,61.0,30.18,West,270,0.0,0.0,81,0.00,,,0.12,,2013-08-18 17:23:00,
2013-08-18 13:52:00,68.0,62.0,30.18,West,270,0.0,0.0,80,0.00,,,0.12,,2013-08-18 17:52:00,
2013-08-18 14:12:00,69.0,62.0,30.18,West,270,0.0,0.0,79,0.00,,,0.12,,2013-08-18 18:12:00,
2013-08-18 14:21:00,69.0,62.0,30.17,West,270,0.0,0.0,78,0.00,,,0.12,,2013-08-18 18:21:00,
2013-08-18 14:52:00,70.0,63.0,30.17,West,270,0.0,0.0,78,0.00,,,0.12,,2013-08-18 18:52:00,
2013-08-18 15:11:00,70.0,63.0,30.17,West,270,0.0,0.0,78,0.00,,,0.12,,2013-08-18 19:11:00,
2013-08-18 15:22:00,70.0,62.0,30.17,WSW,248,0.0,0.0,77,0.00,,,0.12,,2013-08-18 19:22:00,
2013-08-18 15:42:00,71.0,63.0,30.16,WSW,248,0.0,0.0,76,0.00,,,0.12,,2013-08-18 19:42:00,
2013-08-18 15:52:00,71.0,63.0,30.16,WSW,248,0.0,0.0,76,0.00,,,0.12,,2013-08-18 19:52:00,
2013-08-18 16:12:00,71.0,63.0,30.16,WSW,248,0.0,0.0,77,0.00,,,0.12,,2013-08-18 20:12:00,
2013-08-18 16:22:00,72.0,64.0,30.15,WSW,248,0.0,0.0,77,0.00,,,0.12,,2013-08-18 20:22:00,
2013-08-18 16:52:00,72.0,64.0,30.15,WSW,248,0.0,0.0,75,0.00,,,0.12,,2013-08-18 20:52:00,
2013-08-18 17:11:00,72.0,63.0,30.15,NNE,22,0.0,0.0,74,0.00,,,0.12,,2013-08-18 21:11:00,
2013-08-18 17:22:00,71.0,62.0,30.15,NNE,22,0.0,0.0,74,0.00,,,0.12,,2013-08-18 21:22:00,
2013-08-18 17:32:00,71.0,62.0,30.15,NNE,22,0.0,0.0,74,0.00,,,0.12,,2013-08-18 21:32:00,
2013-08-18 17:53:00,71.0,63.0,30.15,NNE,22,0.0,0.0,75,0.00,,,0.12,,2013-08-18 21:53:00,
2013-08-18 18:13:00,71.0,63.0,30.14,NNE,22,0.0,0.0,75,0.00,,,0.12,,2013-08-18 22:13:00,
2013-08-18 18:23:00,71.0,63.0,30.14,NNE,22,0.0,0.0,76,0.00,,,0.12,,2013-08-18 22:23:00,
2013-08-18 18:42:00,71.0,63.0,30.14,NNE,22,0.0,0.0,77,0.00,,,0.12,,2013-08-18 22:42:00,
2013-08-18 18:52:00,71.0,63.0,30.14,NNE,22,0.0,0.0,77,0.00,,,0.12,,2013-08-18 22:52:00,
2013-08-18 19:11:00,71.0,64.0,30.14,NNE,22,0.0,0.0,78,0.00,,,0.12,,2013-08-18 23:11:00,
2013-08-18 19:22:00,71.0,64.0,30.14,NNE,22,0.0,0.0,78,0.00,,,0.12,,2013-08-18 23:22:00,
2013-08-18 19:33:00,71.0,64.0,30.14,NNE,22,0.0,0.0,78,0.00,,,0.12,,2013-08-18 23:33:00,
2013-08-18 19:52:00,70.0,64.0,30.14,NNE,22,0.0,0.0,80,0.00,,,0.12,,2013-08-18 23:52:00,
2013-08-18 20:12:00,69.0,63.0,30.14,NNE,22,0.0,0.0,80,0.02,,,0.14,,2013-08-19 00:12:00,
2013-08-18 20:21:00,69.0,63.0,30.14,NNE,22,0.0,0.0,81,0.02,,,0.14,,2013-08-19 00:21:00,
2013-08-18 20:42:00,68.0,62.0,30.14,NNE,22,0.0,0.0,81,0.02,,,0.14,,2013-08-19 00:42:00,
2013-08-18 20:52:00,68.0,62.0,30.14,NNE,22,0.0,0.0,82,0.02,,,0.14,,2013-08-19 00:52:00,
2013-08-18 21:02:00,68.0,62.0,30.14,NNE,22,0.0,0.0,82,0.02,,,0.14,,2013-08-19 01:02:00,
2013-08-18 21:11:00,68.0,62.0,30.14,NNE,22,0.0,0.0,82,0.02,,,0.14,,2013-08-19 01:11:00,
2013-08-18 21:22:00,67.0,62.0,30.14,NNE,22,0.0,0.0,83,0.00,,,0.14,,2013-08-19 01:22:00,
2013-08-18 21:32:00,67.0,62.0,30.14,NNE,22,0.0,0.0,83,0.00,,,0.14,,2013-08-19 01:32:00,
2013-08-18 21:42:00,67.0,62.0,30.14,NNE,22,0.0,0.0,83,0.00,,,0.14,,2013-08-19 01:42:00,
2013-08-18 21:52:00,67.0,62.0,30.15,NNE,22,0.0,0.0,83,0.00,,,0.14,,2013-08-19 01:52:00,
2013-08-18 22:11:00,67.0,62.0,30.15,NNE,22,0.0,0.0,84,0.00,,,0.14,,2013-08-19 02:11:00,
2013-08-18 22:22:00,66.0,61.0,30.15,NNE,22,0.0,0.0,84,0.00,,,0.14,,2013-08-19 02:22:00,
2013-08-18 22:42:00,66.0,61.0,30.14,NNE,22,0.0,0.0,84,0.00,,,0.14,,2013-08-19 02:42:00,
2013-08-18 22:52:00,66.0,61.0,30.15,NNE,22,0.0,0.0,84,0.00,,,0.14,,2013-08-19 02:52:00,
2013-08-18 23:11:00,66.0,61.0,30.15,NNE,22,0.0,0.0,84,0.00,,,0.14,,2013-08-19 03:11:00,
2013-08-18 23:21:00,66.0,61.0,30.15,NNE,22,0.0,0.0,84,0.00,,,0.14,,2013-08-19 03:21:00,
2013-08-18 23:42:00,66.0,61.0,30.15,NNE,22,0.0,0.0,84,0.00,,,0.14,,2013-08-19 03:42:00,
2013-08-18 23:53:00,66.0,61.0,30.15,NNE,22,0.0,0.0,84,0.00,,,0.14,,2013-08-19 03:53:00,